sat.trackr.live / text

‹ back to catalog

STARLINK-2104

NORAD 47384 · 2021-005AM

PAYLOAD ACTIVE UNKNOWN

§ Identity

Operator
Country
US
Launch date
2021-01-20
Launch site
AFETR
Launch vehicle
Mass (kg)
RCS (m²)

Purposes: comms

External: N2YO · Heavens-Above · Gunter

§ Orbital elements

Epoch: 2026-09-09T07:44:11.572224Z

Period
94.01 min
Inclination
53.1584°
Eccentricity
0.0001055
Mean motion
15.31700173 rev/d
Perigee alt
470.0 km
Apogee alt
471.5 km
Semi-major
6,848.9 km
B*
1.0479e-5
RAAN
262.8576°
Arg perigee
88.6580°
Mean anomaly
271.4543°
Rev number
31,151

§ Raw data

STARLINK-21041 47384U 21005AM  26252.32235616 -.00000040  00000+0  10479-4 0  99982 47384  53.1584 262.8576 0001055  88.6580 271.4543 15.31700173311511

JSON: /api/v1/satellites/47384 · /tle

For live sub-satellite position, see the globe view (requires WebGL).

§ Visibility from observer

Set your observer location to see the next 7 days of passes ≥ 10°. The values pass through the URL so the page stays shareable.

No JS? Fill the form by hand. The geolocation button needs JavaScript.